KR4HBQ-13 Weather Reports


Display with metric or nautical units.
time (UTC)temp
F
wind
direction
speed
MPH
gust
MPH
rain 1hr
in
rain 24hr
in
rain mn
in
humidity
%
barometer
mb
20260505053441 0 160 0.0 0.0 0.00 0.00 0.00 66 1004.0
20260505052941 0 160 0.0 0.0 0.00 0.00 0.00 66 1004.0
20260505052440 0 160 0.0 0.0 0.00 0.00 0.00 65 1003.9
20260505051940 0 160 0.0 0.0 0.00 0.00 0.00 65 1004.0
20260505051440 0 152 0.0 0.0 0.00 0.00 0.00 65 1004.0
20260505050939 0 165 0.0 0.0 0.00 0.00 0.00 65 1004.0
20260505050439 0 165 0.0 0.0 0.00 0.00 0.00 64 1003.9
20260505041436 0 134 0.0 0.0 0.00 0.00 0.00 61 1004.0
20260505040935 0 150 0.0 0.0 0.00 0.00 0.00 61 1003.9
20260505040435 0 150 0.0 0.0 0.00 0.00 0.00 61 1004.0
20260505035935 0 150 0.0 0.0 0.00 0.00 0.00 60 1004.1
20260505035434 0 155 0.0 0.0 0.00 0.00 0.00 60 1004.1
20260505034934 0 155 0.0 0.0 0.00 0.00 0.00 60 1004.0
20260505034434 0 155 0.0 0.0 0.00 0.00 0.00 59 1003.8
20260505033933 0 157 0.0 0.0 0.00 0.00 0.00 59 1003.9
20260505033433 0 140 0.0 0.0 0.00 0.00 0.00 58 1004.0
20260505032932 0 158 0.0 1.0 0.00 0.00 0.00 58 1003.9
20260505032432 0 144 0.0 1.0 0.00 0.00 0.00 57 1004.0
20260505031932 0 174 0.0 0.0 0.00 0.00 0.00 56 1003.8
20260505031431 0 161 0.0 0.0 0.00 0.00 0.00 55 1004.0
20260505030931 0 161 0.0 1.0 0.00 0.00 0.00 54 1004.1
20260505030430 0 162 0.0 0.0 0.00 0.00 0.00 53 1004.0
20260505025930 0 162 0.0 0.0 0.00 0.00 0.00 52 1004.0
20260505025430 0 167 1.0 1.0 0.00 0.00 0.00 52 1003.9
20260505024929 0 141 0.0 0.0 0.00 0.00 0.00 50 1003.8
20260505024429 0 156 0.0 0.0 0.00 0.00 0.00 50 1004.0
20260505023929 0 140 0.0 0.0 0.00 0.00 0.00 49 1003.8
20260505023428 0 144 0.0 0.0 0.00 0.00 0.00 48 1004.0
20260505022928 0 179 1.0 2.0 0.00 0.00 0.00 47 1003.7
20260505022427 0 148 0.0 0.0 0.00 0.00 0.00 47 1003.8
20260505021927 0 149 0.0 0.0 0.00 0.00 0.00 46 1003.8
20260505021427 0 149 0.0 0.0 0.00 0.00 0.00 46 1003.6
20260505020926 0 149 0.0 0.0 0.00 0.00 0.00 45 1003.7
20260505020426 0 149 0.0 0.0 0.00 0.00 0.00 45 1003.5
20260505015926 0 149 0.0 0.0 0.00 0.00 0.00 44 1003.4
20260505015425 0 149 0.0 0.0 0.00 0.00 0.00 45 1003.2
20260505014925 0 150 0.0 0.0 0.00 0.00 0.00 44 1003.3
20260505014425 0 150 0.0 0.0 0.00 0.00 0.00 44 1003.2
20260505013924 0 150 0.0 0.0 0.00 0.00 0.00 43 1003.1
20260505013424 0 167 0.0 0.0 0.00 0.00 0.00 42 1003.2
20260505012924 0 171 0.0 0.0 0.00 0.00 0.00 43 1003.0
20260505012423 0 143 0.0 0.0 0.00 0.00 0.00 43 1003.0
20260505011923 0 169 0.0 0.0 0.00 0.00 0.00 42 1003.1
20260505011423 0 169 0.0 0.0 0.00 0.00 0.00 41 1003.0
20260505010922 0 169 0.0 0.0 0.00 0.00 0.00 41 1002.9
20260505010422 0 169 0.0 0.0 0.00 0.00 0.00 41 1002.8
20260505005917 0 169 0.0 0.0 0.00 0.00 0.00 41 1002.7
20260505005416 0 169 0.0 0.0 0.00 0.00 0.00 41 1002.6
20260505004916 0 165 0.0 0.0 0.00 0.00 0.00 40 1002.5
20260505004416 0 167 0.0 0.0 0.00 0.00 0.00 39 1002.3
20260505003915 0 168 0.0 0.0 0.00 0.00 0.00 40 1002.5
20260505003415 0 126 0.0 0.0 0.00 0.00 0.00 40 1002.3
20260505002915 0 126 0.0 0.0 0.00 0.00 0.00 39 1002.3
20260505002415 0 126 1.0 1.0 0.00 0.00 0.00 38 1002.4
20260505001914 0 125 0.0 0.0 0.00 0.00 0.00 39 1002.3
20260505001414 0 125 0.0 0.0 0.00 0.00 0.00 39 1002.0
20260505000914 0 125 0.0 0.0 0.00 0.00 0.00 38 1002.0
20260505000413 0 125 0.0 0.0 0.00 0.00 0.00 39 1002.3
20260504235913 0 125 0.0 0.0 0.00 0.00 0.00 38 1002.0
20260504235412 0 125 0.0 0.0 0.00 0.00 0.00 37 1002.0
20260504234912 0 125 0.0 0.0 0.00 0.00 0.00 36 1002.1
20260504234412 0 125 0.0 0.0 0.00 0.00 0.00 36 1001.9
20260504233911 0 125 0.0 0.0 0.00 0.00 0.00 34 1001.9
20260504233411 0 125 0.0 0.0 0.00 0.00 0.00 34 1001.8
20260504232911 0 125 0.0 0.0 0.00 0.00 0.00 34 1002.0
20260504232410 0 125 0.0 0.0 0.00 0.00 0.00 33 1001.9
20260504231910 0 167 0.0 0.0 0.00 0.00 0.00 33 1001.8
20260504231410 0 167 0.0 0.0 0.00 0.00 0.00 33 1001.8
20260504230909 0 167 0.0 0.0 0.00 0.00 0.00 32 1001.8
20260504230409 0 155 0.0 0.0 0.00 0.00 0.00 33 1001.9
20260504225909 0 155 0.0 0.0 0.00 0.00 0.00 31 1001.6
20260504225409 0 155 0.0 0.0 0.00 0.00 0.00 30 1001.7
20260504224908 0 157 0.0 0.0 0.00 0.00 0.00 31 1001.8
20260504224408 0 156 0.0 0.0 0.00 0.00 0.00 30 1001.7
20260504223907 0 188 0.0 0.0 0.00 0.00 0.00 31 1001.8
20260504223407 0 157 1.0 1.0 0.00 0.00 0.00 31 1001.7
20260504222907 0 165 0.0 0.0 0.00 0.00 0.00 31 1001.8
20260504222406 0 159 1.0 2.0 0.00 0.00 0.00 29 1001.8
20260504221906 0 179 0.0 0.0 0.00 0.00 0.00 30 1001.9
20260504221406 0 132 0.0 1.0 0.00 0.00 0.00 31 1001.8
20260504220905 0 162 0.0 0.0 0.00 0.00 0.00 30 1001.9
20260504220405 0 162 0.0 0.0 0.00 0.00 0.00 30 1001.9
20260504215905 0 158 0.0 0.0 0.00 0.00 0.00 31 1001.9
20260504215405 0 158 0.0 0.0 0.00 0.00 0.00 31 1001.7
20260504214904 0 158 0.0 1.0 0.00 0.00 0.00 31 1001.9
20260504214404 0 186 0.0 1.0 0.00 0.00 0.00 31 1001.9
20260504213903 0 195 1.0 1.0 0.00 0.00 0.00 31 1001.9
20260504213403 0 181 1.0 2.0 0.00 0.00 0.00 31 1001.9
20260504212903 0 159 1.0 2.0 0.00 0.00 0.00 29 1001.8
20260504212402 0 192 0.0 0.0 0.00 0.00 0.00 31 1002.1
20260504211902 0 172 1.0 1.0 0.00 0.00 0.00 30 1002.1
20260504211402 0 167 2.0 2.0 0.00 0.00 0.00 30 1002.0
20260504210901 0 176 2.0 2.0 0.00 0.00 0.00 30 1002.0
20260504210401 0 194 1.0 1.0 0.00 0.00 0.00 30 1001.9
20260504205901 0 193 0.0 1.0 0.00 0.00 0.00 29 1002.0
20260504205400 0 160 1.0 1.0 0.00 0.00 0.00 29 1001.8
20260504204900 0 169 0.0 0.0 0.00 0.00 0.00 30 1001.8
20260504204400 0 125 0.0 0.0 0.00 0.00 0.00 30 1002.1
20260504203900 0 165 0.0 0.0 0.00 0.00 0.00 30 1002.2
20260504203359 0 160 1.0 2.0 0.00 0.00 0.00 29 1002.3
20260504202859 0 133 0.0 1.0 0.00 0.00 0.00 30 1002.2
20260504202358 0 188 2.0 2.0 0.00 0.00 0.00 29 1002.3
20260504201858 0 177 1.0 1.0 0.00 0.00 0.00 29 1002.2
20260504201358 0 155 2.0 2.0 0.00 0.00 0.00 28 1002.3
20260504200857 0 198 0.0 0.0 0.00 0.00 0.00 28 1002.3
20260504200356 0 154 4.0 7.0 0.00 0.00 0.00 28 1002.5
20260504195856 0 189 1.0 2.0 0.00 0.00 0.00 29 1002.4
20260504195355 0 192 0.0 1.0 0.00 0.00 0.00 28 1002.5
20260504194855 0 141 1.0 1.0 0.00 0.00 0.00 28 1002.7
20260504194354 0 189 0.0 0.0 0.00 0.00 0.00 29 1002.8
20260504193853 0 202 1.0 1.0 0.00 0.00 0.00 28 1002.6
20260504193352 0 186 2.0 3.0 0.00 0.00 0.00 29 1002.7
20260504192852 0 184 0.0 0.0 0.00 0.00 0.00 29 1002.9
20260504192352 0 90 0.0 0.0 0.00 0.00 0.00 30 1002.9
20260504191851 0 180 2.0 3.0 0.00 0.00 0.00 29 1003.1
20260504191351 0 155 0.0 0.0 0.00 0.00 0.00 29 1003.2
20260504190851 0 185 0.0 1.0 0.00 0.00 0.00 28 1003.0
20260504190350 0 225 0.0 1.0 0.00 0.00 0.00 30 1003.2
20260504185850 0 172 1.0 1.0 0.00 0.00 0.00 29 1003.2
20260504185350 0 186 0.0 1.0 0.00 0.00 0.00 31 1003.0
20260504184849 0 268 1.0 1.0 0.00 0.00 0.00 30 1003.3
20260504184349 0 173 0.0 1.0 0.00 0.00 0.00 31 1003.2
20260504183849 0 158 1.0 2.0 0.00 0.00 0.00 31 1003.2
20260504183348 0 131 0.0 1.0 0.00 0.00 0.00 30 1003.3
20260504182848 0 231 0.0 1.0 0.00 0.00 0.00 28 1003.8
20260504182343 0 177 0.0 0.0 0.00 0.00 0.00 29 1003.7
20260504181842 0 200 2.0 2.0 0.00 0.00 0.00 30 1003.7
20260504181342 0 192 1.0 1.0 0.00 0.00 0.00 31 1003.6
20260504180842 0 171 2.0 3.0 0.00 0.00 0.00 31 1003.5
20260504180342 0 195 0.0 1.0 0.00 0.00 0.00 33 1003.7
20260504175841 0 135 0.0 0.0 0.00 0.00 0.00 33 1003.7
20260504175341 0 167 1.0 1.0 0.00 0.00 0.00 33 1003.8
20260504174841 0 201 0.0 0.0 0.00 0.00 0.00 34 1004.0
20260504174340 0 171 1.0 1.0 0.00 0.00 0.00 34 1003.8
20260504173840 0 230 1.0 1.0 0.00 0.00 0.00 32 1003.8
20260504173340 0 148 0.0 0.0 0.00 0.00 0.00 36 1003.7
20260504172840 0 177 1.0 2.0 0.00 0.00 0.00 35 1003.9
20260504172339 0 172 1.0 2.0 0.00 0.00 0.00 33 1003.9
20260504171839 0 92 0.0 1.0 0.00 0.00 0.00 32 1004.2
20260504171339 0 188 2.0 2.0 0.00 0.00 0.00 37 1004.2
20260504170838 0 131 0.0 1.0 0.00 0.00 0.00 36 1004.4
20260504170338 0 134 0.0 0.0 0.00 0.00 0.00 39 1004.4
20260504160333 0 16 1.0 1.0 0.00 0.00 0.00 48 1005.3
20260504150829 0 155 0.0 0.0 0.00 0.00 0.00 55 1005.5
20260504150327 0 138 1.0 1.0 0.00 0.00 0.00 54 1005.5
20260504141324 0 193 0.0 0.0 0.00 0.00 0.00 62 1005.8
20260504140824 0 174 0.0 0.0 0.00 0.00 0.00 63 1005.6
20260504140324 0 169 0.0 0.0 0.00 0.00 0.00 64 1005.7
20260504130820 0 110 0.0 0.0 0.00 0.00 0.00 73 1006.0
20260504130320 0 110 0.0 0.0 0.00 0.00 0.00 75 1006.0
20260504120316 0 110 0.0 0.0 0.00 0.00 0.00 86 1006.4
20260504110312 0 110 0.0 0.0 0.00 0.00 0.00 89 1006.3
20260504100308 0 110 0.0 0.0 0.00 0.00 0.00 88 1006.0
20260504081802 0 110 0.0 0.0 0.00 0.00 0.00 82 1005.9
20260504081301 0 110 0.0 0.0 0.00 0.00 0.00 82 1005.9
20260504080801 0 110 0.0 0.0 0.00 0.00 0.00 82 1006.0
20260504080300 0 110 0.0 0.0 0.00 0.00 0.00 81 1005.9
20260504070256 0 110 0.0 0.0 0.00 0.00 0.00 79 1005.8